Time,TemperatureF,DewpointF,PressureIn,WindDirection,WindDirectionDegrees,WindSpeedMPH,WindSpeedGustMPH,Humidity,HourlyPrecipIn,Conditions,Clouds,dailyrainin,SolarRadiationWatts/m^2,SoftwareType,DateUTC
2013-02-20 00:05:00,27.0,24.0,30.32,North,360,0.0,0.0,87,0.00,,,0.00,0,weatherlink.com 1.10,2013-02-20 06:05:00,
2013-02-20 00:20:00,27.0,24.0,30.33,North,360,0.0,1.0,87,0.00,,,0.00,0,weatherlink.com 1.10,2013-02-20 06:20:00,
2013-02-20 00:36:00,26.9,23.0,30.33,North,360,0.0,0.0,86,0.00,,,0.00,0,weatherlink.com 1.10,2013-02-20 06:36:00,
2013-02-20 00:50:00,26.6,24.0,30.33,North,360,0.0,0.0,88,0.00,,,0.00,0,weatherlink.com 1.10,2013-02-20 06:50:00,
2013-02-20 01:06:00,26.3,24.0,30.34,North,360,0.0,0.0,89,0.00,,,0.00,0,weatherlink.com 1.10,2013-02-20 07:06:00,
2013-02-20 01:20:00,26.1,23.0,30.33,North,360,0.0,0.0,89,0.00,,,0.00,0,weatherlink.com 1.10,2013-02-20 07:20:00,
2013-02-20 01:36:00,25.9,23.0,30.33,North,360,0.0,0.0,89,0.00,,,0.00,0,weatherlink.com 1.10,2013-02-20 07:36:00,
2013-02-20 01:51:00,26.0,23.0,30.33,North,360,0.0,1.0,89,0.00,,,0.00,0,weatherlink.com 1.10,2013-02-20 07:51:00,
2013-02-20 02:06:00,26.3,24.0,30.34,North,360,0.0,1.0,90,0.00,,,0.00,0,weatherlink.com 1.10,2013-02-20 08:06:00,
2013-02-20 02:21:00,26.2,24.0,30.34,North,360,0.0,1.0,90,0.00,,,0.00,0,weatherlink.com 1.10,2013-02-20 08:21:00,
2013-02-20 02:36:00,26.1,24.0,30.35,North,360,0.0,1.0,91,0.00,,,0.00,0,weatherlink.com 1.10,2013-02-20 08:36:00,
2013-02-20 02:51:00,26.2,24.0,30.34,North,360,0.0,0.0,91,0.00,,,0.00,0,weatherlink.com 1.10,2013-02-20 08:51:00,
2013-02-20 03:06:00,26.2,24.0,30.33,North,360,0.0,0.0,91,0.00,,,0.00,0,weatherlink.com 1.10,2013-02-20 09:06:00,
2013-02-20 03:21:00,26.2,24.0,30.33,North,360,0.0,1.0,91,0.00,,,0.00,0,weatherlink.com 1.10,2013-02-20 09:21:00,
2013-02-20 03:36:00,26.3,24.0,30.33,North,360,0.0,2.0,91,0.00,,,0.00,0,weatherlink.com 1.10,2013-02-20 09:36:00,
2013-02-20 03:51:00,26.4,24.0,30.33,North,360,1.0,2.0,90,0.00,,,0.00,0,weatherlink.com 1.10,2013-02-20 09:51:00,
2013-02-20 04:06:00,26.7,24.0,30.33,North,360,0.0,2.0,89,0.00,,,0.00,0,weatherlink.com 1.10,2013-02-20 10:06:00,
2013-02-20 04:21:00,27.0,24.0,30.34,North,360,0.0,0.0,89,0.00,,,0.00,0,weatherlink.com 1.10,2013-02-20 10:21:00,
2013-02-20 04:36:00,27.0,25.0,30.34,North,360,0.0,0.0,90,0.00,,,0.00,0,weatherlink.com 1.10,2013-02-20 10:36:00,
2013-02-20 04:51:00,26.9,25.0,30.35,North,360,0.0,0.0,91,0.00,,,0.00,0,weatherlink.com 1.10,2013-02-20 10:51:00,
2013-02-20 05:06:00,26.8,25.0,30.35,North,360,0.0,0.0,91,0.00,,,0.00,0,weatherlink.com 1.10,2013-02-20 11:06:00,
2013-02-20 05:21:00,26.9,23.0,30.35,North,360,0.0,2.0,86,0.00,,,0.00,0,weatherlink.com 1.10,2013-02-20 11:21:00,
2013-02-20 05:36:00,27.5,17.0,30.35,North,360,1.0,2.0,66,0.00,,,0.00,0,weatherlink.com 1.10,2013-02-20 11:36:00,
2013-02-20 05:51:00,28.6,17.0,30.35,NE,42,0.0,3.0,61,0.00,,,0.00,0,weatherlink.com 1.10,2013-02-20 11:51:00,
2013-02-20 06:06:00,28.8,16.0,30.35,NE,42,1.0,2.0,58,0.00,,,0.00,0,weatherlink.com 1.10,2013-02-20 12:06:00,
2013-02-20 06:21:00,28.9,16.0,30.37,NE,42,0.0,0.0,58,0.00,,,0.00,0,weatherlink.com 1.10,2013-02-20 12:21:00,
2013-02-20 06:36:00,28.8,16.0,30.36,NE,42,0.0,1.0,59,0.00,,,0.00,0,weatherlink.com 1.10,2013-02-20 12:36:00,
2013-02-20 06:51:00,28.8,14.0,30.36,NE,42,0.0,1.0,54,0.00,,,0.00,0,weatherlink.com 1.10,2013-02-20 12:51:00,
2013-02-20 07:06:00,28.8,14.0,30.37,NE,42,0.0,1.0,55,0.00,,,0.00,5,weatherlink.com 1.10,2013-02-20 13:06:00,
2013-02-20 07:21:00,28.8,15.0,30.38,NE,42,0.0,1.0,56,0.00,,,0.00,11,weatherlink.com 1.10,2013-02-20 13:21:00,
2013-02-20 07:36:00,28.8,13.0,30.38,NE,42,0.0,0.0,53,0.00,,,0.00,16,weatherlink.com 1.10,2013-02-20 13:36:00,
2013-02-20 07:51:00,29.0,15.0,30.39,NE,42,0.0,1.0,57,0.00,,,0.00,23,weatherlink.com 1.10,2013-02-20 13:51:00,
2013-02-20 08:07:00,29.2,13.0,30.38,NE,42,0.0,1.0,52,0.00,,,0.00,37,weatherlink.com 1.10,2013-02-20 14:07:00,
2013-02-20 08:21:00,29.3,14.0,30.37,NE,42,0.0,3.0,53,0.00,,,0.00,49,weatherlink.com 1.10,2013-02-20 14:21:00,
2013-02-20 08:37:00,29.6,14.0,30.38,NE,42,0.0,2.0,52,0.00,,,0.00,67,weatherlink.com 1.10,2013-02-20 14:37:00,
2013-02-20 08:51:00,29.8,14.0,30.39,East,80,0.0,4.0,51,0.00,,,0.00,77,weatherlink.com 1.10,2013-02-20 14:51:00,
2013-02-20 09:06:00,30.1,14.0,30.38,East,80,0.0,1.0,51,0.00,,,0.00,88,weatherlink.com 1.10,2013-02-20 15:06:00,
2013-02-20 09:21:00,30.3,14.0,30.38,East,81,0.0,3.0,51,0.00,,,0.00,84,weatherlink.com 1.10,2013-02-20 15:21:00,
2013-02-20 09:36:00,30.5,14.0,30.37,East,81,0.0,2.0,50,0.00,,,0.00,72,weatherlink.com 1.10,2013-02-20 15:36:00,
2013-02-20 09:51:00,30.7,15.0,30.37,East,81,1.0,1.0,52,0.00,,,0.00,77,weatherlink.com 1.10,2013-02-20 15:51:00,
2013-02-20 10:07:00,31.0,16.0,30.37,ESE,112,2.0,3.0,53,0.00,,,0.00,97,weatherlink.com 1.10,2013-02-20 16:07:00,
2013-02-20 10:22:00,31.4,16.0,30.36,ESE,105,0.0,2.0,54,0.00,,,0.00,95,weatherlink.com 1.10,2013-02-20 16:22:00,
2013-02-20 10:37:00,31.5,16.0,30.36,ESE,109,0.0,3.0,53,0.00,,,0.00,86,weatherlink.com 1.10,2013-02-20 16:37:00,
2013-02-20 10:52:00,31.7,15.0,30.36,ESE,109,0.0,1.0,50,0.00,,,0.00,58,weatherlink.com 1.10,2013-02-20 16:52:00,
2013-02-20 11:07:00,31.9,15.0,30.37,ESE,109,0.0,1.0,51,0.00,,,0.00,76,weatherlink.com 1.10,2013-02-20 17:07:00,
2013-02-20 11:22:00,32.1,15.0,30.37,ESE,109,0.0,1.0,49,0.00,,,0.00,84,weatherlink.com 1.10,2013-02-20 17:22:00,
2013-02-20 11:37:00,32.3,15.0,30.37,ESE,109,1.0,1.0,50,0.00,,,0.00,79,weatherlink.com 1.10,2013-02-20 17:37:00,
2013-02-20 11:52:00,32.5,16.0,30.37,ESE,109,0.0,1.0,50,0.00,,,0.00,95,weatherlink.com 1.10,2013-02-20 17:52:00,
2013-02-20 12:07:00,33.0,17.0,30.37,ESE,109,0.0,1.0,51,0.00,,,0.00,128,weatherlink.com 1.10,2013-02-20 18:07:00,
2013-02-20 12:22:00,34.1,18.0,30.34,ESE,107,1.0,3.0,51,0.00,,,0.00,313,weatherlink.com 1.10,2013-02-20 18:22:00,
2013-02-20 12:37:00,35.3,18.0,30.33,NE,36,0.0,3.0,50,0.00,,,0.00,404,weatherlink.com 1.10,2013-02-20 18:37:00,
2013-02-20 12:52:00,36.4,17.0,30.31,NW,318,0.0,2.0,45,0.00,,,0.00,213,weatherlink.com 1.10,2013-02-20 18:52:00,
2013-02-20 13:07:00,36.1,16.0,30.30,SE,142,0.0,4.0,45,0.00,,,0.00,202,weatherlink.com 1.10,2013-02-20 19:07:00,
2013-02-20 13:22:00,36.6,17.0,30.29,South,190,2.0,2.0,45,0.00,,,0.00,295,weatherlink.com 1.10,2013-02-20 19:22:00,
2013-02-20 13:37:00,36.8,16.0,30.28,ENE,67,1.0,3.0,43,0.00,,,0.00,239,weatherlink.com 1.10,2013-02-20 19:37:00,
2013-02-20 13:52:00,37.2,15.0,30.27,NNW,327,1.0,5.0,41,0.00,,,0.00,137,weatherlink.com 1.10,2013-02-20 19:52:00,
2013-02-20 14:07:00,36.8,14.0,30.27,SE,133,1.0,4.0,39,0.00,,,0.00,105,weatherlink.com 1.10,2013-02-20 20:07:00,
2013-02-20 14:22:00,36.4,15.0,30.26,SE,132,0.0,1.0,42,0.00,,,0.00,95,weatherlink.com 1.10,2013-02-20 20:22:00,
2013-02-20 14:38:00,36.4,16.0,30.26,SSW,194,0.0,2.0,43,0.00,,,0.00,91,weatherlink.com 1.10,2013-02-20 20:38:00,
2013-02-20 14:52:00,36.4,15.0,30.25,SSE,151,0.0,3.0,42,0.00,,,0.00,105,weatherlink.com 1.10,2013-02-20 20:52:00,
2013-02-20 15:07:00,36.1,15.0,30.25,SE,132,0.0,4.0,43,0.00,,,0.00,83,weatherlink.com 1.10,2013-02-20 21:07:00,
2013-02-20 15:22:00,36.1,15.0,30.25,SE,142,1.0,3.0,42,0.00,,,0.00,93,weatherlink.com 1.10,2013-02-20 21:22:00,
2013-02-20 15:38:00,36.1,14.0,30.24,ESE,122,0.0,2.0,41,0.00,,,0.00,100,weatherlink.com 1.10,2013-02-20 21:38:00,
2013-02-20 15:52:00,36.4,15.0,30.25,SSE,164,0.0,3.0,41,0.00,,,0.00,51,weatherlink.com 1.10,2013-02-20 21:52:00,
2013-02-20 16:08:00,36.2,15.0,30.26,SSE,164,0.0,3.0,42,0.00,,,0.00,69,weatherlink.com 1.10,2013-02-20 22:08:00,
2013-02-20 16:22:00,36.1,15.0,30.25,SSE,164,0.0,2.0,43,0.00,,,0.00,63,weatherlink.com 1.10,2013-02-20 22:22:00,
2013-02-20 16:38:00,36.0,15.0,30.24,SSE,164,0.0,2.0,43,0.00,,,0.00,74,weatherlink.com 1.10,2013-02-20 22:38:00,
2013-02-20 16:52:00,35.9,15.0,30.25,South,175,0.0,2.0,42,0.00,,,0.00,40,weatherlink.com 1.10,2013-02-20 22:52:00,
2013-02-20 17:07:00,35.8,15.0,30.25,South,175,0.0,2.0,43,0.00,,,0.00,25,weatherlink.com 1.10,2013-02-20 23:07:00,
2013-02-20 17:23:00,35.5,13.0,30.24,ESE,119,0.0,3.0,40,0.00,,,0.00,16,weatherlink.com 1.10,2013-02-20 23:23:00,
2013-02-20 17:38:00,35.2,14.0,30.25,SE,126,0.0,3.0,41,0.00,,,0.00,7,weatherlink.com 1.10,2013-02-20 23:38:00,
2013-02-20 17:52:00,35.1,14.0,30.25,SSE,154,0.0,2.0,42,0.00,,,0.00,0,weatherlink.com 1.10,2013-02-20 23:52:00,
2013-02-20 18:08:00,35.0,14.0,30.23,SSE,154,0.0,2.0,42,0.00,,,0.00,0,weatherlink.com 1.10,2013-02-21 00:08:00,
2013-02-20 18:22:00,34.8,15.0,30.22,SE,127,0.0,2.0,44,0.00,,,0.00,0,weatherlink.com 1.10,2013-02-21 00:22:00,
2013-02-20 18:37:00,34.8,15.0,30.23,SE,127,0.0,2.0,44,0.00,,,0.00,0,weatherlink.com 1.10,2013-02-21 00:37:00,
2013-02-20 18:52:00,34.8,16.0,30.23,SE,127,0.0,2.0,46,0.00,,,0.00,0,weatherlink.com 1.10,2013-02-21 00:52:00,
2013-02-20 19:08:00,34.9,15.0,30.23,SE,127,1.0,2.0,45,0.00,,,0.00,0,weatherlink.com 1.10,2013-02-21 01:08:00,
2013-02-20 19:22:00,34.9,15.0,30.22,SE,127,0.0,2.0,45,0.00,,,0.00,0,weatherlink.com 1.10,2013-02-21 01:22:00,
2013-02-20 19:37:00,34.9,15.0,30.22,SE,130,0.0,3.0,44,0.00,,,0.00,0,weatherlink.com 1.10,2013-02-21 01:37:00,
2013-02-20 19:53:00,34.8,15.0,30.22,SSE,150,0.0,4.0,45,0.00,,,0.00,0,weatherlink.com 1.10,2013-02-21 01:53:00,
2013-02-20 20:08:00,34.5,14.0,30.22,SE,126,0.0,7.0,44,0.00,,,0.00,0,weatherlink.com 1.10,2013-02-21 02:08:00,
2013-02-20 20:23:00,34.3,14.0,30.21,SE,141,2.0,3.0,44,0.00,,,0.00,0,weatherlink.com 1.10,2013-02-21 02:23:00,
2013-02-20 20:38:00,34.2,15.0,30.22,SE,141,0.0,4.0,46,0.00,,,0.00,0,weatherlink.com 1.10,2013-02-21 02:38:00,
2013-02-20 20:53:00,34.1,16.0,30.22,SE,143,0.0,3.0,48,0.00,,,0.00,0,weatherlink.com 1.10,2013-02-21 02:53:00,
2013-02-20 21:08:00,34.1,17.0,30.22,SSE,167,0.0,2.0,49,0.00,,,0.00,0,weatherlink.com 1.10,2013-02-21 03:08:00,
2013-02-20 21:23:00,33.9,16.0,30.23,SSE,167,0.0,2.0,49,0.00,,,0.00,0,weatherlink.com 1.10,2013-02-21 03:23:00,
2013-02-20 21:38:00,33.6,16.0,30.23,ESE,111,0.0,2.0,48,0.00,,,0.00,0,weatherlink.com 1.10,2013-02-21 03:38:00,
2013-02-20 21:53:00,33.3,15.0,30.23,SE,128,3.0,6.0,47,0.00,,,0.00,0,weatherlink.com 1.10,2013-02-21 03:53:00,
2013-02-20 22:08:00,33.0,15.0,30.23,SE,127,3.0,5.0,48,0.00,,,0.00,0,weatherlink.com 1.10,2013-02-21 04:08:00,
2013-02-20 22:23:00,32.7,14.0,30.22,SE,128,1.0,6.0,47,0.00,,,0.00,0,weatherlink.com 1.10,2013-02-21 04:23:00,
2013-02-20 22:38:00,32.5,15.0,30.23,ESE,123,1.0,6.0,48,0.00,,,0.00,0,weatherlink.com 1.10,2013-02-21 04:38:00,
2013-02-20 22:53:00,32.4,14.0,30.22,SE,144,2.0,3.0,47,0.00,,,0.00,0,weatherlink.com 1.10,2013-02-21 04:53:00,
2013-02-20 23:08:00,32.3,15.0,30.22,ESE,122,0.0,3.0,50,0.00,,,0.00,0,weatherlink.com 1.10,2013-02-21 05:08:00,
2013-02-20 23:23:00,32.2,15.0,30.21,ESE,123,1.0,3.0,49,0.00,,,0.00,0,weatherlink.com 1.10,2013-02-21 05:23:00,
2013-02-20 23:38:00,32.2,14.0,30.22,SE,134,0.0,6.0,48,0.00,,,0.00,0,weatherlink.com 1.10,2013-02-21 05:38:00,
2013-02-20 23:53:00,32.2,15.0,30.22,SE,142,0.0,4.0,49,0.00,,,0.00,0,weatherlink.com 1.10,2013-02-21 05:53:00,